GW2696 Weather Reports


time (UTC)temp
F
wind
direction
speed
knots
gust
knots
rain 1hr
in
rain 24hr
in
rain mn
in
humidity
%
barometer
mb
20260505192218 57 158 1.7 7.0 0.00 0.00 0.00 42 1012.3
20260505191238 55 203 6.1 13.0 0.00 0.00 0.00 48 1012.2
20260505190218 54 135 3.5 5.2 0.00 0.00 0.00 48 1012.3
20260505185218 54 135 2.6 8.7 0.00 0.00 0.00 45 1012.1
20260505184217 54 203 5.2 8.7 0.00 0.00 0.00 42 1011.9
20260505183218 55 203 8.7 11.3 0.00 0.00 0.00 38 1012.1
20260505182218 55 248 4.3 7.8 0.00 0.00 0.00 40 1012.5
20260505181217 54 203 5.2 9.6 0.00 0.00 0.00 43 1012.1
20260505180218 53 203 4.3 7.0 0.00 0.00 0.00 39 1011.9
20260505175218 53 180 4.3 8.7 0.00 0.00 0.00 43 1011.9
20260505174218 53 180 7.0 11.3 0.00 0.00 0.00 41 1011.9
20260505173258 53 203 5.2 9.6 0.00 0.00 0.00 42 1012.4
20260505172218 52 225 5.2 8.7 0.00 0.00 0.00 46 1012.0
20260505171238 51 293 1.7 4.3 0.00 0.00 0.00 46 1011.4
20260505170258 50 203 7.0 9.6 0.00 0.00 0.00 45 1011.6
20260505165218 49 203 7.0 13.0 0.00 0.00 0.00 49 1011.5
20260505164238 48 180 6.1 7.8 0.00 0.00 0.00 49 1011.4
20260505163218 48 203 8.7 10.4 0.00 0.00 0.00 50 1011.9
20260505162217 48 203 7.8 10.4 0.00 0.00 0.00 50 1011.8
20260505161217 48 225 6.1 8.7 0.00 0.00 0.00 51 1011.8
20260505160237 48 203 7.0 8.7 0.00 0.00 0.00 50 1011.6
20260505153217 48 203 7.0 13.0 0.00 0.00 0.00 51 1011.5
20260505152238 48 180 7.0 10.4 0.00 0.00 0.00 53 1011.5
20260505151218 48 203 3.5 5.2 0.00 0.00 0.00 58 1011.6
20260505150238 48 203 6.1 7.8 0.00 0.00 0.00 54 1011.6
20260505140217 45 203 7.0 10.4 0.00 0.00 0.00 64 1011.2
20260505130217 42 0.0 0.0 0.00 0.00 0.00 65 1010.8
20260505124217 43 0.0 0.0 0.00 0.00 0.00 64 1010.9
20260505123217 43 203 4.3 5.2 0.00 0.00 0.00 64 1011.0
20260505122218 43 225 2.6 5.2 0.00 0.00 0.00 64 1010.9
20260505121217 44 203 0.9 2.6 0.00 0.00 0.00 63 1010.9
20260505120217 44 0.0 0.0 0.00 0.00 0.00 62 1011.4
20260505115238 44 0.0 1.7 0.00 0.00 0.00 61 1011.6
20260505114217 44 315 2.6 3.5 0.00 0.00 0.00 61 1011.7
20260505113217 44 203 3.5 8.7 0.00 0.00 0.00 62 1011.8
20260505112237 44 203 8.7 14.8 0.00 0.00 0.00 63 1011.8
20260505111217 44 225 4.3 7.8 0.00 0.00 0.00 63 1011.7
20260505110217 44 203 4.3 7.0 0.00 0.00 0.00 61 1011.6
20260505102217 44 203 3.5 7.0 0.00 0.00 0.00 54 1011.8
20260505101217 44 270 0.9 5.2 0.00 0.00 0.00 55 1012.0
20260505100217 44 203 3.5 4.3 0.00 0.00 0.00 55 1012.3
20260505095217 44 225 4.3 7.0 0.00 0.00 0.00 55 1012.4
20260505094217 44 225 4.3 7.0 0.00 0.00 0.00 54 1012.7
20260505093217 44 225 3.5 8.7 0.00 0.00 0.00 52 1012.7
20260505092217 44 180 6.1 10.4 0.00 0.00 0.00 54 1012.6
20260505091217 45 203 5.2 7.0 0.00 0.00 0.00 52 1012.6
20260505090217 45 203 7.0 8.7 0.00 0.00 0.00 52 1012.8
20260505085217 45 225 2.6 5.2 0.00 0.00 0.00 49 1013.1
20260505084217 46 248 4.3 7.0 0.00 0.00 0.00 48 1013.0
20260505083217 46 203 8.7 13.9 0.00 0.00 0.00 46 1013.1
20260505082216 45 203 5.2 21.7 0.00 0.00 0.00 49 1013.4
20260505081217 45 270 4.3 8.7 0.00 0.00 0.00 47 1013.3
20260505080217 46 270 0.9 3.5 0.00 0.00 0.00 45 1013.6
20260505075217 46 180 7.0 10.4 0.00 0.00 0.00 44 1013.8
20260505074216 46 248 2.6 5.2 0.00 0.00 0.00 43 1013.8
20260505073237 46 293 3.5 8.7 0.00 0.00 0.00 42 1013.6
20260505072218 46 203 7.8 13.9 0.00 0.00 0.00 42 1013.0
20260505071217 46 180 8.7 21.7 0.00 0.00 0.00 42 1012.8
20260505070346 46 203 7.0 10.4 0.00 0.00 0.00 43 1012.5
20260505065218 47 203 7.0 11.3 0.00 0.00 0.00 43 1012.8
20260505064239 47 203 8.7 14.8 0.00 0.00 0.00 46 1012.6
20260505063218 47 203 13.9 19.1 0.00 0.00 0.00 49 1011.7
20260505062218 47 203 13.9 24.3 0.00 0.00 0.00 50 1011.8
20260505061219 47 203 13.0 22.6 0.00 0.00 0.00 50 1011.6
20260505060239 48 203 10.4 14.8 0.00 0.00 0.00 50 1011.5
20260505055218 48 203 12.2 21.7 0.00 0.00 0.00 48 1011.3
20260505054239 48 203 17.4 23.5 0.00 0.00 0.00 47 1011.6